AUA15L LOWW-LSGG

Flight info

Callsign AUA15L
Flight time 1h 11m
Altitude 34000
Route SOVIL DCT SITNI DCT BAGSI DCT MATIG DCT TRAUN/N0438F380 L856 AKABI/N0438F390 L856 TRA DCT LUTIX DCT BENOT
Aircraft A20N/M-SDE2E3FGHIRWXY/LB1

Departure

Time 2026-04-24 07:05
Airport Vienna International Airport (LOWW)

Arrival

Time 2026-04-24 08:16
Airport Geneva International Airport (LSGG)
Time Latitude Longitude Altitude Speed Heading
2026-04-24 06:49 48.11386 16.57247 623 ft 0 kts 206°
2026-04-24 07:01 48.11385 16.57247 609 ft 0 kts 206°
2026-04-24 07:01 48.11363 16.57230 623 ft 8 kts 206°
2026-04-24 07:01 48.11289 16.57281 609 ft 17 kts 158°
2026-04-24 07:01 48.11189 16.57342 609 ft 12 kts 127°
2026-04-24 07:02 48.11144 16.57474 617 ft 16 kts 115°
2026-04-24 07:02 48.11096 16.57619 620 ft 14 kts 125°
2026-04-24 07:02 48.11022 16.57632 609 ft 0 kts 207°
2026-04-24 07:03 48.11017 16.57628 609 ft 3 kts 207°
2026-04-24 07:04 48.10968 16.57592 616 ft 13 kts 207°
2026-04-24 07:04 48.10942 16.57454 615 ft 16 kts 301°
2026-04-24 07:04 48.11032 16.57178 618 ft 68 kts 295°
2026-04-24 07:04 48.11359 16.56167 620 ft 143 kts 296°
2026-04-24 07:05 48.11844 16.54664 1009 ft 174 kts 296°
2026-04-24 07:05 48.12333 16.52875 1669 ft 198 kts 284°
2026-04-24 07:05 48.12415 16.51483 2247 ft 207 kts 270°
2026-04-24 07:05 48.11756 16.48795 3766 ft 216 kts 236°
2026-04-24 07:06 48.10712 16.47069 4599 ft 233 kts 232°
2026-04-24 07:06 48.09955 16.45884 5070 ft 244 kts 232°
2026-04-24 07:06 48.08848 16.43850 5726 ft 262 kts 239°
2026-04-24 07:06 48.07746 16.41622 6715 ft 267 kts 239°
2026-04-24 07:07 48.06628 16.39363 7681 ft 275 kts 239°
2026-04-24 07:07 48.05472 16.37019 8634 ft 283 kts 238°
2026-04-24 07:07 48.03453 16.31860 10384 ft 296 kts 260°
2026-04-24 07:08 48.03266 16.28734 10779 ft 312 kts 276°
2026-04-24 07:08 48.03354 16.25385 11246 ft 332 kts 276°
2026-04-24 07:08 48.03440 16.21908 12067 ft 339 kts 276°
2026-04-24 07:08 48.03515 16.18355 12891 ft 345 kts 276°
2026-04-24 07:09 48.03582 16.14734 13789 ft 351 kts 275°
2026-04-24 07:09 48.03645 16.11063 14560 ft 356 kts 275°
2026-04-24 07:09 48.03707 16.07328 15291 ft 363 kts 275°
2026-04-24 07:09 48.03767 16.03544 16068 ft 368 kts 275°
2026-04-24 07:10 48.03828 15.99689 16817 ft 373 kts 275°
2026-04-24 07:10 48.03889 15.95785 17556 ft 379 kts 275°
2026-04-24 07:10 48.03949 15.91824 18265 ft 384 kts 275°
2026-04-24 07:10 48.04009 15.87806 18927 ft 389 kts 275°
2026-04-24 07:11 48.04069 15.83735 19596 ft 393 kts 275°
2026-04-24 07:11 48.04128 15.79619 20208 ft 398 kts 275°
2026-04-24 07:11 48.04186 15.75468 20827 ft 403 kts 275°
2026-04-24 07:11 48.04244 15.71307 21455 ft 407 kts 274°
2026-04-24 07:12 48.04300 15.67055 22085 ft 412 kts 274°
2026-04-24 07:12 48.04356 15.62744 22701 ft 417 kts 274°
2026-04-24 07:12 48.04410 15.58383 23321 ft 421 kts 274°
2026-04-24 07:12 48.04463 15.53984 23916 ft 426 kts 274°
2026-04-24 07:13 48.04515 15.49544 24443 ft 429 kts 274°
2026-04-24 07:13 48.04565 15.45078 25006 ft 431 kts 274°
2026-04-24 07:13 48.04613 15.40571 25540 ft 434 kts 274°
2026-04-24 07:13 48.04661 15.36044 26049 ft 437 kts 274°
2026-04-24 07:14 48.04728 15.31479 26574 ft 440 kts 275°
2026-04-24 07:14 48.04807 15.26897 27061 ft 443 kts 275°
2026-04-24 07:14 48.04884 15.22332 27512 ft 446 kts 275°
2026-04-24 07:14 48.04959 15.17690 28009 ft 448 kts 275°
2026-04-24 07:15 48.05031 15.13010 28456 ft 451 kts 275°
2026-04-24 07:15 48.05100 15.08309 28890 ft 454 kts 275°
2026-04-24 07:15 48.05167 15.03568 29311 ft 457 kts 275°
2026-04-24 07:15 48.05232 14.98820 29727 ft 459 kts 275°
2026-04-24 07:16 48.05294 14.94032 30126 ft 462 kts 275°
2026-04-24 07:16 48.05356 14.89214 30496 ft 465 kts 275°
2026-04-24 07:16 48.05415 14.84360 30847 ft 467 kts 275°
2026-04-24 07:16 48.05469 14.79478 31208 ft 470 kts 275°
2026-04-24 07:17 48.05509 14.74588 31615 ft 471 kts 275°
2026-04-24 07:17 48.05543 14.69700 32079 ft 470 kts 275°
2026-04-24 07:17 48.05576 14.64823 32538 ft 469 kts 275°
2026-04-24 07:17 48.05609 14.59955 32991 ft 468 kts 275°
2026-04-24 07:18 48.05641 14.55106 33435 ft 467 kts 275°
2026-04-24 07:18 48.05670 14.50243 33865 ft 466 kts 275°
2026-04-24 07:18 48.05698 14.45398 34136 ft 466 kts 275°
2026-04-24 07:18 48.05724 14.40580 34176 ft 464 kts 275°
2026-04-24 07:19 48.05771 14.30932 34175 ft 464 kts 275°
2026-04-24 07:19 48.05810 14.21283 34183 ft 464 kts 275°
2026-04-24 07:20 48.05841 14.11632 34182 ft 464 kts 275°
2026-04-24 07:20 48.05864 14.02029 34175 ft 465 kts 275°
2026-04-24 07:21 48.05879 13.92354 34186 ft 465 kts 275°
2026-04-24 07:21 48.05887 13.82687 34184 ft 465 kts 275°
2026-04-24 07:22 48.05884 13.73006 34187 ft 465 kts 275°
2026-04-24 07:22 48.05873 13.63331 34183 ft 466 kts 275°
2026-04-24 07:23 48.05781 13.53635 34187 ft 468 kts 270°
2026-04-24 07:23 48.04992 13.43947 34184 ft 470 kts 267°
2026-04-24 07:24 48.04172 13.34249 34187 ft 470 kts 267°
2026-04-24 07:24 48.03343 13.24552 34191 ft 470 kts 267°
2026-04-24 07:25 48.02503 13.14848 34196 ft 471 kts 267°
2026-04-24 07:25 48.01653 13.05142 34196 ft 471 kts 266°
2026-04-24 07:26 48.00796 12.95447 34200 ft 471 kts 266°
2026-04-24 07:26 47.99936 12.85806 34202 ft 471 kts 266°
2026-04-24 07:27 47.99062 12.76111 34197 ft 471 kts 266°
2026-04-24 07:27 47.98179 12.66414 34194 ft 471 kts 266°
2026-04-24 07:28 47.97288 12.56719 34198 ft 471 kts 266°
2026-04-24 07:28 47.96394 12.47017 34197 ft 471 kts 266°
2026-04-24 07:29 47.95493 12.37332 34197 ft 471 kts 265°
2026-04-24 07:29 47.94583 12.27632 34199 ft 471 kts 265°
2026-04-24 07:30 47.93666 12.17962 34205 ft 471 kts 265°
2026-04-24 07:30 47.92731 12.08301 34206 ft 471 kts 265°
2026-04-24 07:31 47.91785 11.98639 34207 ft 470 kts 265°
2026-04-24 07:31 47.90835 11.88998 34209 ft 470 kts 264°
2026-04-24 07:32 47.89877 11.79368 34214 ft 470 kts 264°
2026-04-24 07:32 47.88920 11.69744 34212 ft 469 kts 264°
2026-04-24 07:33 47.87958 11.60122 34208 ft 469 kts 264°
2026-04-24 07:33 47.86988 11.50506 34209 ft 469 kts 264°
2026-04-24 07:34 47.86008 11.40897 34208 ft 469 kts 264°
2026-04-24 07:34 47.85020 11.31291 34204 ft 469 kts 264°
2026-04-24 07:35 47.84023 11.21682 34202 ft 469 kts 264°
2026-04-24 07:35 47.83025 11.12151 34204 ft 469 kts 263°
2026-04-24 07:36 47.82144 11.03825 34213 ft 469 kts 263°
2026-04-24 07:36 47.81116 10.94235 34212 ft 469 kts 263°
2026-04-24 07:37 47.80078 10.84627 34212 ft 469 kts 263°
2026-04-24 07:37 47.79033 10.75030 34212 ft 470 kts 263°
2026-04-24 07:38 47.77980 10.65436 34205 ft 470 kts 263°
2026-04-24 07:38 47.76920 10.55855 34210 ft 470 kts 262°
2026-04-24 07:39 47.75874 10.46471 34199 ft 470 kts 262°
2026-04-24 07:39 47.74973 10.38439 34206 ft 470 kts 262°
2026-04-24 07:40 47.74412 10.27641 34199 ft 468 kts 270°
2026-04-24 07:40 47.74205 10.17960 34199 ft 468 kts 270°
2026-04-24 07:41 47.73980 10.08283 34205 ft 469 kts 270°
2026-04-24 07:41 47.73749 9.98772 34205 ft 469 kts 269°
2026-04-24 07:42 47.73506 9.89068 34220 ft 469 kts 269°
2026-04-24 07:42 47.73257 9.79383 34223 ft 469 kts 269°
2026-04-24 07:43 47.72999 9.69687 34235 ft 469 kts 269°
2026-04-24 07:43 47.72732 9.60000 34240 ft 469 kts 269°
2026-04-24 07:44 47.72455 9.50313 34244 ft 469 kts 268°
2026-04-24 07:44 47.72170 9.40671 34245 ft 469 kts 268°
2026-04-24 07:45 47.71907 9.30988 34240 ft 469 kts 268°
2026-04-24 07:45 47.71687 9.22873 34237 ft 469 kts 268°
2026-04-24 07:46 47.71345 9.11637 34231 ft 468 kts 268°
2026-04-24 07:46 47.71083 9.03595 34224 ft 468 kts 268°
2026-04-24 07:47 47.70759 8.93939 34216 ft 467 kts 267°
2026-04-24 07:47 47.70430 8.84303 34226 ft 467 kts 267°
2026-04-24 07:48 47.70094 8.74682 34223 ft 466 kts 267°
2026-04-24 07:48 47.69750 8.65062 34229 ft 466 kts 267°
2026-04-24 07:49 47.69399 8.55463 34229 ft 466 kts 266°
2026-04-24 07:49 47.68614 8.45940 34227 ft 464 kts 253°
2026-04-24 07:50 47.65916 8.37388 34225 ft 460 kts 233°
2026-04-24 07:50 47.62170 8.29687 34226 ft 460 kts 233°
2026-04-24 07:51 47.58435 8.21985 34225 ft 459 kts 233°
2026-04-24 07:51 47.54700 8.14310 34225 ft 459 kts 233°
2026-04-24 07:52 47.50957 8.06643 34228 ft 459 kts 232°
2026-04-24 07:52 47.47213 7.98994 34225 ft 458 kts 232°
2026-04-24 07:53 47.43469 7.91369 34230 ft 458 kts 232°
2026-04-24 07:53 47.39724 7.83762 34228 ft 458 kts 232°
2026-04-24 07:54 47.35972 7.76163 34232 ft 458 kts 232°
2026-04-24 07:54 47.32243 7.68631 34222 ft 458 kts 232°
2026-04-24 07:55 47.28491 7.61072 34142 ft 450 kts 232°
2026-04-24 07:55 47.26674 7.57414 33966 ft 433 kts 232°
2026-04-24 07:55 47.24923 7.53895 33574 ft 421 kts 232°
2026-04-24 07:56 47.23206 7.50452 32845 ft 416 kts 231°
2026-04-24 07:56 47.21501 7.47038 32108 ft 412 kts 231°
2026-04-24 07:56 47.19812 7.43663 31404 ft 407 kts 231°
2026-04-24 07:56 47.18142 7.40324 30718 ft 403 kts 231°
2026-04-24 07:57 47.16484 7.37016 30002 ft 399 kts 231°
2026-04-24 07:57 47.14815 7.33791 29216 ft 394 kts 229°
2026-04-24 07:57 47.13110 7.30663 28451 ft 390 kts 228°
2026-04-24 07:57 47.11410 7.27580 27731 ft 387 kts 228°
2026-04-24 07:58 47.09728 7.24525 27021 ft 383 kts 229°
2026-04-24 07:58 47.08068 7.21492 26323 ft 380 kts 229°
2026-04-24 07:58 47.06425 7.18483 25648 ft 376 kts 229°
2026-04-24 07:58 47.04799 7.15498 24993 ft 373 kts 229°
2026-04-24 07:59 47.03183 7.12535 24347 ft 370 kts 229°
2026-04-24 07:59 47.01603 7.09642 23752 ft 367 kts 229°
2026-04-24 07:59 47.00016 7.06739 23040 ft 363 kts 229°
2026-04-24 07:59 46.98445 7.03868 22369 ft 359 kts 229°
2026-04-24 08:00 46.96889 7.01028 21701 ft 356 kts 229°
2026-04-24 08:00 46.95347 6.98217 21050 ft 353 kts 229°
2026-04-24 08:00 46.93817 6.95431 20386 ft 350 kts 229°
2026-04-24 08:00 46.92295 6.92662 19764 ft 347 kts 229°
2026-04-24 08:01 46.90788 6.89921 19160 ft 344 kts 229°
2026-04-24 08:01 46.89291 6.87205 18567 ft 342 kts 229°
2026-04-24 08:01 46.87806 6.84511 17923 ft 338 kts 229°
2026-04-24 08:01 46.86340 6.81855 17330 ft 333 kts 229°
2026-04-24 08:02 46.84893 6.79237 16739 ft 329 kts 229°
2026-04-24 08:02 46.83459 6.76647 16149 ft 325 kts 229°
2026-04-24 08:02 46.82045 6.74094 15571 ft 321 kts 230°
2026-04-24 08:02 46.80646 6.71569 14998 ft 318 kts 230°
2026-04-24 08:03 46.79259 6.69067 14442 ft 315 kts 230°
2026-04-24 08:03 46.77908 6.66634 13900 ft 311 kts 230°
2026-04-24 08:03 46.76551 6.64195 13319 ft 308 kts 230°
2026-04-24 08:03 46.75210 6.61779 12706 ft 305 kts 230°
2026-04-24 08:04 46.73870 6.59386 12120 ft 303 kts 227°
2026-04-24 08:04 46.72278 6.57402 11533 ft 300 kts 210°
2026-04-24 08:04 46.70396 6.56165 10959 ft 296 kts 197°
2026-04-24 08:04 46.68442 6.55245 10408 ft 294 kts 197°
2026-04-24 08:05 46.66510 6.54320 9929 ft 289 kts 197°
2026-04-24 08:05 46.64593 6.53394 9561 ft 293 kts 197°
2026-04-24 08:05 46.63311 6.52774 9308 ft 292 kts 197°
2026-04-24 08:05 46.62181 6.52224 9124 ft 288 kts 197°
2026-04-24 08:06 46.60338 6.51327 8954 ft 271 kts 197°
2026-04-24 08:06 46.58623 6.50488 8834 ft 255 kts 197°
2026-04-24 08:06 46.56988 6.49694 8702 ft 240 kts 197°
2026-04-24 08:06 46.55416 6.48933 8443 ft 232 kts 197°
2026-04-24 08:07 46.53892 6.48197 8058 ft 230 kts 197°
2026-04-24 08:07 46.52376 6.47466 7672 ft 229 kts 197°
2026-04-24 08:07 46.50892 6.46751 7319 ft 226 kts 197°
2026-04-24 08:07 46.49405 6.46036 7149 ft 222 kts 198°
2026-04-24 08:08 46.47898 6.45306 7220 ft 229 kts 199°
2026-04-24 08:08 46.46513 6.44241 7077 ft 225 kts 217°
2026-04-24 08:08 46.45354 6.42718 6893 ft 223 kts 225°
2026-04-24 08:09 46.43393 6.39800 6501 ft 176 kts 225°
2026-04-24 08:09 46.42592 6.38614 6272 ft 155 kts 225°
2026-04-24 08:09 46.41876 6.37554 6071 ft 140 kts 225°
2026-04-24 08:09 46.41190 6.36538 5898 ft 142 kts 225°
2026-04-24 08:10 46.40510 6.35532 5710 ft 140 kts 225°
2026-04-24 08:10 46.39829 6.34523 5531 ft 140 kts 225°
2026-04-24 08:10 46.39149 6.33518 5348 ft 139 kts 225°
2026-04-24 08:10 46.38472 6.32517 5163 ft 139 kts 225°
2026-04-24 08:11 46.37797 6.31519 4983 ft 138 kts 225°
2026-04-24 08:11 46.37124 6.30524 4795 ft 138 kts 225°
2026-04-24 08:11 46.36452 6.29531 4610 ft 138 kts 225°
2026-04-24 08:11 46.35780 6.28538 4425 ft 138 kts 225°
2026-04-24 08:12 46.35110 6.27548 4239 ft 138 kts 225°
2026-04-24 08:12 46.34438 6.26555 4050 ft 138 kts 225°
2026-04-24 08:12 46.33770 6.25569 3870 ft 137 kts 225°
2026-04-24 08:12 46.33099 6.24580 3686 ft 138 kts 225°
2026-04-24 08:13 46.32429 6.23590 3504 ft 138 kts 225°
2026-04-24 08:13 46.31759 6.22602 3318 ft 138 kts 225°
2026-04-24 08:13 46.31089 6.21613 3135 ft 138 kts 225°
2026-04-24 08:13 46.30419 6.20625 2942 ft 137 kts 225°
2026-04-24 08:14 46.29847 6.19782 2771 ft 137 kts 225°
2026-04-24 08:14 46.29182 6.18802 2573 ft 136 kts 226°
2026-04-24 08:14 46.28523 6.17832 2378 ft 134 kts 225°
2026-04-24 08:14 46.27871 6.16871 2188 ft 133 kts 225°
2026-04-24 08:15 46.27222 6.15914 2007 ft 133 kts 225°
2026-04-24 08:15 46.26574 6.14960 1836 ft 132 kts 225°
2026-04-24 08:15 46.25931 6.14013 1664 ft 132 kts 225°
2026-04-24 08:15 46.25287 6.13067 1474 ft 131 kts 226°
2026-04-24 08:16 46.24667 6.12154 1372 ft 118 kts 225°
2026-04-24 08:16 46.24349 6.11686 1372 ft 34 kts 225°
2026-04-24 08:16 46.24175 6.11431 1375 ft 37 kts 226°
2026-04-24 08:16 46.24003 6.11180 1378 ft 32 kts 225°
2026-04-24 08:17 46.23862 6.11077 1379 ft 16 kts 173°
2026-04-24 08:17 46.23759 6.11096 1378 ft 6 kts 172°
2026-04-24 08:17 46.23713 6.11130 1378 ft 13 kts 137°
2026-04-24 08:17 46.23698 6.11152 1381 ft 4 kts 135°
2026-04-24 08:18 46.23682 6.11173 1383 ft 0 kts 136°